FW9637 Weather Reports


time (UTC)temp
C
wind
direction
speed
KPH
gust
KPH
rain 1hr
cm
rain 24hr
cm
rain mn
cm
humidity
%
barometer
mb
20260510095033 9 0 0.0 0.0 0.00 0.86 0.03 91 1010.6
20260510094548 9 0 0.0 0.0 0.00 0.86 0.03 91 1010.5
20260510094036 9 0 0.0 0.0 0.00 0.86 0.03 91 1010.4
20260510093534 9 0 0.0 3.2 0.00 0.86 0.03 91 1010.4
20260510093045 10 0 0.0 3.2 0.03 0.86 0.03 91 1010.2
20260510092536 10 261 0.0 3.2 0.03 0.86 0.03 91 1010.1
20260510092034 10 261 0.0 3.2 0.03 0.86 0.03 91 1010.1
20260510091544 10 261 0.0 1.6 0.03 0.86 0.03 91 1010.1
20260510091034 10 261 0.0 1.6 0.03 0.86 0.03 91 1010.0
20260510090534 10 0 0.0 1.6 0.03 0.86 0.03 91 1010.0
20260510090043 10 0 0.0 0.0 0.03 0.86 0.03 91 1009.7
20260510085538 10 0 0.0 0.0 0.03 0.86 0.03 91 1009.8
20260510085035 10 0 0.0 0.0 0.03 0.86 0.03 91 1010.0
20260510084554 10 0 0.0 1.6 0.03 0.86 0.03 91 1010.0
20260510084036 10 0 0.0 3.2 0.03 0.86 0.03 91 1010.0
20260510083536 10 0 0.0 3.2 0.03 0.86 0.03 91 1010.1
20260510083044 10 250 1.6 3.2 0.00 0.84 0.00 91 1010.0
20260510082536 10 337 0.0 3.2 0.00 0.84 0.00 91 1010.0
20260510082035 10 0 1.6 14.5 0.00 0.84 0.00 91 1009.9
20260510081546 10 331 1.6 14.5 0.00 0.84 0.00 91 1010.0
20260510081035 10 154 3.2 8.0 0.00 0.84 0.00 91 1009.8
20260510080537 10 34 0.0 1.6 0.00 0.84 0.00 91 1010.0
20260510080045 10 0 0.0 1.6 0.00 0.84 0.00 91 1010.3
20260510075535 10 0 0.0 1.6 0.00 0.86 0.00 91 1010.5
20260510075036 10 0 0.0 3.2 0.00 0.86 0.00 91 1010.9
20260510074558 10 33 0.0 3.2 0.00 0.86 0.00 91 1010.6
20260510074037 10 0 0.0 1.6 0.00 0.86 0.00 91 1010.5
20260510073540 10 0 0.0 3.2 0.00 0.86 0.00 91 1010.7
20260510073048 10 0 0.0 3.2 0.00 0.86 0.00 91 1010.8
20260510072536 10 76 0.0 1.6 0.00 0.86 0.00 91 1010.8
20260510072036 10 0 0.0 1.6 0.00 0.86 0.00 91 1010.8
20260510071553 10 151 0.0 1.6 0.00 0.86 0.00 91 1010.8
20260510071038 10 0 0.0 1.6 0.00 0.86 0.00 91 1010.9
20260510070535 10 151 0.0 1.6 0.00 0.86 0.00 91 1011.0
20260510070051 10 0 0.0 1.6 0.00 0.86 0.00 91 1011.0
20260510065536 10 0 0.0 3.2 0.00 0.99 0.00 91 1011.1
20260510065036 10 0 0.0 3.2 0.00 0.99 0.00 91 1011.2
20260510064603 10 151 0.0 3.2 0.00 0.99 0.00 91 1011.2
20260510064035 10 0 0.0 4.8 0.00 0.99 0.00 91 1011.3
20260510063535 10 0 1.6 4.8 0.00 0.99 0.00 91 1011.3
20260510063045 9 255 0.0 4.8 0.00 0.99 0.00 91 1010.7
20260510062536 9 219 0.0 3.2 0.00 0.99 0.00 91 1010.6
20260510062036 9 0 0.0 1.6 0.00 0.99 0.00 91 1010.4
20260510061544 9 0 0.0 1.6 0.00 0.99 0.00 91 1010.4
20260510061036 9 0 0.0 1.6 0.00 0.99 0.00 91 1010.4
20260510060536 9 0 0.0 1.6 0.00 0.99 0.00 91 1010.6
20260510060052 9 0 0.0 1.6 0.00 0.99 0.00 91 1010.5
20260510055621 9 0 0.0 1.6 0.00 1.04 0.00 91 1010.6
20260510055034 9 32 0.0 1.6 0.00 1.04 0.00 90 1010.9
20260510054542 9 0 0.0 1.6 0.00 1.04 0.00 90 1011.0
20260510054034 9 0 0.0 1.6 0.00 1.04 0.00 90 1010.9
20260510053533 8 0 0.0 1.6 0.00 1.04 0.00 91 1010.9
20260510053042 8 0 0.0 0.0 0.00 1.04 0.00 91 1010.8
20260510052533 8 0 0.0 1.6 0.00 1.04 0.00 90 1010.8
20260510052034 8 0 0.0 1.6 0.00 1.04 0.00 90 1010.8
20260510051554 8 0 0.0 1.6 0.00 1.04 0.00 90 1010.9
20260510051034 8 0 0.0 1.6 0.00 1.04 0.00 90 1010.8
20260510050534 8 0 0.0 1.6 0.00 1.04 0.00 90 1010.5
20260510050047 8 0 0.0 1.6 0.00 1.04 0.00 90 1010.1
20260510045535 8 0 0.0 1.6 0.00 1.04 0.00 90 1010.0
20260510045034 8 0 0.0 1.6 0.00 1.04 0.00 90 1010.1
20260510044545 8 0 0.0 1.6 0.00 1.04 0.00 90 1010.1
20260510044034 7 0 0.0 1.6 0.00 1.04 0.00 90 1010.2
20260510043534 7 0 0.0 1.6 0.00 1.04 0.00 90 1010.1
20260510043048 7 0 0.0 1.6 0.00 1.04 0.00 90 1010.3
20260510042534 7 0 0.0 1.6 0.00 1.04 0.00 90 1010.4
20260510042033 7 32 0.0 1.6 0.00 1.04 0.00 90 1010.4
20260510041557 7 0 0.0 1.6 0.00 1.04 0.00 89 1010.4
20260510041034 7 0 0.0 1.6 0.00 1.04 0.00 89 1010.4
20260510040534 7 0 0.0 1.6 0.00 1.04 0.00 90 1010.3
20260510040049 7 0 0.0 0.0 0.00 1.04 0.00 89 1010.4
20260510035533 7 0 0.0 0.0 0.00 1.04 1.04 89 1010.4
20260510035034 7 0 0.0 0.0 0.00 1.04 1.04 89 1010.3
20260510034546 7 0 0.0 0.0 0.00 1.04 1.04 89 1010.1
20260510034034 7 0 0.0 1.6 0.00 1.04 1.04 89 1010.0
20260510033536 7 0 0.0 1.6 0.00 1.04 1.04 89 1010.1
20260510033046 7 32 0.0 1.6 0.00 1.04 1.04 89 1010.1
20260510032534 7 0 0.0 1.6 0.00 1.04 1.04 89 1010.1
20260510032036 7 0 0.0 1.6 0.00 1.04 1.04 89 1010.1
20260510031544 7 0 0.0 1.6 0.00 1.04 1.04 89 1010.0
20260510031035 7 0 0.0 1.6 0.00 1.04 1.04 89 1009.8
20260510030534 7 0 0.0 0.0 0.00 1.04 1.04 89 1009.9
20260510030049 7 0 0.0 0.0 0.00 1.04 1.04 89 1009.8
20260510025534 7 0 0.0 0.0 0.00 1.04 1.04 89 1010.0
20260510025035 7 0 0.0 1.6 0.00 1.04 1.04 89 1010.0
20260510024552 7 0 0.0 1.6 0.00 1.04 1.04 89 1010.0
20260510024033 7 0 0.0 1.6 0.00 1.04 1.04 89 1010.2
20260510023533 8 0 0.0 0.0 0.00 1.04 1.04 89 1010.1
20260510023047 8 0 0.0 0.0 0.00 1.04 1.04 89 1010.0
20260510022534 8 0 0.0 0.0 0.00 1.04 1.04 89 1010.0
20260510022035 8 0 0.0 0.0 0.00 1.04 1.04 89 1010.0
20260510021541 8 0 0.0 0.0 0.00 1.04 1.04 89 1010.0
20260510021034 8 0 0.0 0.0 0.00 1.04 1.04 89 1009.9
20260510020534 8 0 0.0 1.6 0.00 1.04 1.04 89 1010.0
20260510020051 8 0 0.0 1.6 0.00 1.04 1.04 89 1009.9
20260510015535 8 0 0.0 1.6 0.00 1.04 1.04 89 1009.8
20260510015034 9 0 0.0 0.0 0.00 1.04 1.04 89 1009.8
20260510014543 9 0 0.0 3.2 0.00 1.04 1.04 89 1009.8
20260510014034 9 0 0.0 3.2 0.00 1.04 1.04 89 1009.9
20260510013534 9 0 0.0 3.2 0.00 1.04 1.04 89 1010.0
20260510013050 10 0 0.0 0.0 0.00 1.04 1.04 89 1009.7
20260510012536 10 0 0.0 0.0 0.00 1.04 1.04 89 1009.8
20260510012034 10 0 0.0 0.0 0.00 1.04 1.04 89 1009.7
20260510011545 10 0 0.0 0.0 0.00 1.04 1.04 89 1009.5
20260510011034 10 0 0.0 0.0 0.00 1.04 1.04 89 1009.7
20260510010533 10 0 0.0 0.0 0.00 1.04 1.04 89 1009.8
20260510010058 10 0 0.0 0.0 0.00 1.04 1.04 89 1009.8
20260510005535 10 0 0.0 0.0 0.00 1.04 1.04 89 1009.6
20260510005035 10 0 0.0 0.0 0.00 1.04 1.04 89 1009.5
20260510004541 10 0 0.0 1.6 0.00 1.04 1.04 89 1009.5
20260510004034 11 0 0.0 1.6 0.00 1.04 1.04 89 1009.4
20260510003534 11 0 0.0 1.6 0.00 1.04 1.04 89 1009.4
20260510003046 11 0 0.0 1.6 0.00 1.04 1.04 90 1009.3
20260510002535 11 0 0.0 1.6 0.00 1.04 1.04 90 1009.2
20260510002034 11 0 0.0 3.2 0.00 1.04 1.04 90 1009.1
20260510001543 11 32 0.0 3.2 0.00 1.04 1.04 89 1009.2
20260510001037 11 0 0.0 3.2 0.00 1.04 1.04 89 1009.1
20260510000536 11 0 0.0 4.8 0.00 1.04 1.04 89 1009.0
20260510000047 11 0 0.0 4.8 0.00 1.04 1.04 90 1009.0
20260509235534 11 185 0.0 3.2 0.00 1.04 1.04 90 1009.1
20260509235034 11 0 0.0 1.6 0.00 1.04 1.04 90 1009.0
20260509234558 11 0 0.0 1.6 0.00 1.04 1.04 89 1008.9
20260509234037 11 0 0.0 3.2 0.00 1.04 1.04 90 1008.8
20260509233538 11 0 0.0 3.2 0.00 1.04 1.04 90 1008.7
20260509233041 11 0 0.0 3.2 0.00 1.04 1.04 90 1008.5
20260509232538 12 0 0.0 4.8 0.00 1.04 1.04 90 1008.5
20260509232035 12 0 0.0 4.8 0.00 1.04 1.04 90 1008.3
20260509231539 12 0 0.0 6.4 0.00 1.04 1.04 90 1008.3
20260509231034 12 139 0.0 6.4 0.00 1.04 1.04 90 1008.4
20260509230540 12 0 0.0 3.2 0.00 1.04 1.04 90 1008.5
20260509230046 12 289 0.0 3.2 0.00 1.04 1.04 90 1008.5
20260509225535 12 230 0.0 6.4 0.00 1.04 1.04 90 1008.6
20260509225037 12 360 1.6 6.4 0.00 1.04 1.04 90 1008.5
20260509224543 12 203 1.6 4.8 0.00 1.04 1.04 90 1008.5
20260509224034 12 0 0.0 4.8 0.00 1.04 1.04 90 1008.7
20260509223534 12 0 1.6 4.8 0.00 1.04 1.04 90 1008.6
20260509223042 12 230 0.0 4.8 0.00 1.04 1.04 90 1008.6
20260509222533 12 231 1.6 4.8 0.00 1.04 1.04 90 1008.7
20260509222036 12 207 0.0 4.8 0.00 1.04 1.04 90 1008.7
20260509221601 12 0 1.6 4.8 0.00 1.04 1.04 90 1008.9
20260509221033 12 221 1.6 4.8 0.00 1.04 1.04 90 1008.9
20260509220534 12 337 0.0 6.4 0.00 1.04 1.04 90 1009.0
20260509220052 12 243 1.6 6.4 0.00 1.04 1.04 90 1008.9
20260509215531 12 0 0.0 4.8 0.00 1.04 1.04 90 1009.0
20260509215034 12 360 0.0 9.7 0.00 1.04 1.04 90 1009.0
20260509214540 12 0 3.2 12.9 0.00 1.04 1.04 90 1009.0
20260509214035 12 193 3.2 12.9 0.00 1.04 1.04 90 1009.0
20260509213535 12 360 1.6 8.0 0.00 1.04 1.04 90 1008.9
20260509213045 12 211 1.6 4.8 0.00 1.04 1.04 90 1009.1
20260509212537 12 203 0.0 4.8 0.00 1.04 1.04 90 1009.1
20260509212036 12 218 0.0 4.8 0.03 1.04 1.04 90 1009.1
20260509211546 12 218 0.0 4.8 0.03 1.04 1.04 90 1009.1
20260509211034 12 231 0.0 3.2 0.03 1.04 1.04 90 1009.0
20260509210536 12 0 0.0 3.2 0.03 1.04 1.04 90 1009.0
20260509210053 12 0 0.0 3.2 0.05 1.04 1.04 90 1009.1
20260509205533 12 0 1.6 4.8 0.05 1.04 1.04 90 1009.2
20260509205034 12 194 0.0 4.8 0.05 1.04 1.04 90 1009.3
20260509204544 12 286 0.0 3.2 0.08 1.04 1.04 90 1009.2
20260509204034 12 0 0.0 3.2 0.08 1.04 1.04 90 1009.2
20260509203533 12 0 0.0 4.8 0.10 1.04 1.04 90 1009.3
20260509203050 12 234 1.6 4.8 0.13 1.04 1.04 90 1009.3
20260509202537 12 198 1.6 4.8 0.15 1.04 1.04 90 1009.3
20260509202035 12 0 1.6 4.8 0.13 1.02 1.02 90 1009.3
20260509201544 12 0 1.6 8.0 0.15 1.02 1.02 90 1009.4
20260509201034 12 207 1.6 8.0 0.18 1.02 1.02 90 1009.4
20260509200534 12 227 1.6 6.4 0.18 0.99 0.99 90 1009.6
20260509200048 12 0 1.6 4.8 0.20 0.99 0.99 90 1009.6
20260509195535 12 223 1.6 4.8 0.23 0.99 0.99 90 1009.8
20260509195036 12 217 1.6 3.2 0.23 0.99 0.99 90 1009.9
20260509194544 12 0 0.0 4.8 0.23 0.97 0.97 90 1010.1
20260509194034 12 0 0.0 4.8 0.25 0.97 0.97 90 1010.1
20260509193534 12 218 0.0 4.8 0.25 0.94 0.94 90 1010.3
20260509193049 12 0 0.0 4.8 0.25 0.91 0.91 90 1010.3
20260509192534 12 0 0.0 3.2 0.25 0.89 0.89 90 1010.4
20260509192043 12 211 0.0 4.8 0.25 0.86 0.86 90 1010.3
20260509191557 12 204 0.0 4.8 0.30 0.86 0.86 90 1010.4
20260509191033 12 217 0.0 6.4 0.33 0.84 0.84 90 1010.4
20260509190537 12 208 0.0 6.4 0.33 0.81 0.81 90 1010.4
20260509190054 12 267 1.6 9.7 0.33 0.79 0.79 90 1010.6
20260509185534 12 207 1.6 9.7 0.33 0.79 0.76 90 1010.6
20260509185035 12 265 3.2 9.7 0.36 0.79 0.76 90 1010.5
20260509184545 12 0 3.2 8.0 0.33 0.76 0.74 90 1010.6
20260509184034 12 154 3.2 8.0 0.33 0.74 0.71 90 1010.6
20260509183535 12 198 3.2 6.4 0.30 0.71 0.69 90 1010.6
20260509183050 12 217 1.6 9.7 0.28 0.69 0.66 90 1010.8
20260509182537 12 197 3.2 9.7 0.28 0.66 0.64 90 1010.7
20260509182034 12 227 1.6 12.9 0.23 0.61 0.58 90 1010.7
20260509181546 12 156 3.2 12.9 0.20 0.58 0.56 90 1010.8
20260509181035 12 203 3.2 8.0 0.15 0.53 0.51 90 1010.9
20260509180534 12 232 3.2 9.7 0.13 0.51 0.48 90 1010.9
20260509180046 12 216 3.2 9.7 0.10 0.48 0.46 90 1010.9
20260509175534 12 244 1.6 6.4 0.08 0.46 0.43 90 1010.8
20260509175034 12 0 1.6 6.4 0.05 0.43 0.41 90 1010.9
20260509174539 12 227 1.6 6.4 0.05 0.43 0.41 90 1010.7
20260509174033 12 233 1.6 6.4 0.05 0.41 0.38 90 1010.7
20260509173533 12 0 0.0 3.2 0.05 0.41 0.38 90 1010.6
20260509173051 12 221 0.0 4.8 0.05 0.41 0.38 90 1010.7
20260509172535 12 194 1.6 4.8 0.03 0.38 0.36 90 1010.7
20260509172035 12 298 1.6 4.8 0.03 0.38 0.36 90 1010.8
20260509171601 11 346 0.0 3.2 0.03 0.38 0.36 90 1010.7
20260509171034 11 258 0.0 3.2 0.03 0.38 0.36 90 1010.8
20260509170534 11 9 0.0 3.2 0.05 0.38 0.36 90 1010.7
20260509170045 11 0 0.0 3.2 0.05 0.38 0.36 90 1010.7
20260509165534 11 0 0.0 1.6 0.05 0.38 0.36 90 1010.7
20260509165035 11 0 0.0 1.6 0.05 0.38 0.36 90 1010.8
20260509164549 11 0 0.0 1.6 0.05 0.38 0.36 90 1010.8
20260509164034 11 0 0.0 3.2 0.03 0.36 0.33 90 1010.8
20260509163535 11 0 0.0 3.2 0.05 0.36 0.33 90 1010.8
20260509163050 11 11 0.0 3.2 0.05 0.36 0.33 90 1011.0
20260509162534 11 9 0.0 3.2 0.05 0.36 0.33 90 1011.0
20260509162036 11 0 0.0 3.2 0.05 0.36 0.33 90 1010.7
20260509161547 11 45 0.0 3.2 0.08 0.36 0.33 90 1010.6
20260509161034 11 0 0.0 3.2 0.08 0.36 0.33 90 1010.6
20260509160535 11 103 1.6 4.8 0.05 0.33 0.30 90 1010.6
20260509160048 11 80 0.0 4.8 0.05 0.33 0.30 90 1010.8
20260509155534 11 27 0.0 3.2 0.05 0.33 0.30 90 1011.0
20260509155034 10 82 0.0 3.2 0.05 0.33 0.30 90 1011.0
20260509154547 10 82 1.6 3.2 0.08 0.33 0.30 90 1011.3
20260509154035 10 101 0.0 1.6 0.08 0.33 0.30 90 1011.4
20260509153534 10 0 0.0 1.6 0.05 0.30 0.28 90 1011.6
20260509153052 10 75 0.0 1.6 0.05 0.30 0.28 90 1011.5
20260509152535 10 0 0.0 1.6 0.05 0.30 0.28 90 1011.5
20260509152034 10 0 0.0 1.6 0.05 0.30 0.28 90 1011.6
20260509151548 10 75 0.0 3.2 0.05 0.28 0.25 90 1011.7
20260509151035 10 0 0.0 3.2 0.05 0.28 0.25 90 1011.6
20260509150533 10 88 1.6 3.2 0.05 0.28 0.25 90 1011.6
20260509150047 10 34 0.0 3.2 0.05 0.28 0.25 90 1011.4
20260509145536 10 73 0.0 3.2 0.05 0.28 0.25 90 1011.3
20260509145034 10 67 0.0 3.2 0.05 0.28 0.25 90 1011.4
20260509144547 10 67 0.0 3.2 0.03 0.25 0.23 90 1011.3
20260509144035 10 55 0.0 1.6 0.03 0.25 0.23 90 1011.4
20260509143554 10 0 0.0 1.6 0.03 0.25 0.23 90 1011.4
20260509143042 9 0 0.0 3.2 0.03 0.25 0.23 90 1011.4
20260509142535 9 0 0.0 3.2 0.03 0.25 0.23 90 1011.4
20260509142034 9 55 0.0 4.8 0.03 0.25 0.23 90 1011.1
20260509141551 9 55 0.0 4.8 0.00 0.23 0.20 90 1011.1
20260509141035 9 0 1.6 4.8 0.00 0.23 0.20 90 1011.1
20260509140535 9 56 1.6 3.2 0.00 0.23 0.20 90 1011.3
20260509140046 9 0 0.0 3.2 0.00 0.23 0.20 90 1011.4
20260509135534 9 28 0.0 4.8 0.00 0.23 0.20 90 1011.4
20260509135034 8 86 1.6 4.8 0.00 0.23 0.20 90 1011.3
20260509134556 9 49 0.0 3.2 0.00 0.23 0.20 90 1011.2
20260509134038 9 65 0.0 4.8 0.00 0.23 0.20 90 1011.2
20260509133534 9 44 1.6 4.8 0.00 0.23 0.20 90 1011.3
20260509133049 8 331 0.0 3.2 0.00 0.23 0.20 90 1011.4
20260509132536 8 351 0.0 3.2 0.00 0.23 0.20 90 1011.5
20260509132037 8 0 0.0 3.2 0.00 0.23 0.20 90 1011.6
20260509131601 8 0 0.0 4.8 0.00 0.23 0.20 90 1011.5
20260509131035 8 0 0.0 4.8 0.00 0.23 0.20 90 1011.6
20260509130537 8 311 0.0 3.2 0.00 0.23 0.20 90 1011.6
20260509130053 8 83 0.0 4.8 0.00 0.23 0.20 90 1011.6
20260509125534 8 88 1.6 4.8 0.00 0.23 0.20 89 1011.5
20260509125034 8 0 0.0 4.8 0.00 0.23 0.20 90 1011.6
20260509124549 8 73 0.0 4.8 0.00 0.23 0.20 90 1011.7
20260509124034 8 81 1.6 4.8 0.00 0.23 0.20 90 1011.7
20260509123534 8 73 1.6 3.2 0.00 0.23 0.20 90 1011.7
20260509123051 8 0 1.6 4.8 0.00 0.23 0.20 89 1011.8
20260509122534 8 0 0.0 4.8 0.00 0.23 0.20 89 1011.9
20260509122034 8 84 1.6 6.4 0.00 0.23 0.20 89 1011.8
20260509121550 8 0 1.6 9.7 0.00 0.23 0.20 89 1011.8
20260509121036 8 74 1.6 9.7 0.00 0.23 0.20 89 1011.5
20260509120534 8 82 1.6 6.4 0.00 0.23 0.20 89 1011.2
20260509120044 8 45 1.6 6.4 0.00 0.23 0.20 89 1011.2
20260509115534 8 0 1.6 6.4 0.00 0.23 0.20 89 1011.1
20260509115034 8 83 1.6 6.4 0.00 0.23 0.20 89 1011.2
20260509114557 8 82 1.6 6.4 0.00 0.23 0.20 89 1011.3
20260509114034 8 96 0.0 4.8 0.00 0.23 0.20 89 1011.3
20260509113533 8 342 0.0 6.4 0.00 0.23 0.20 89 1011.3
20260509113046 8 0 0.0 6.4 0.00 0.23 0.20 89 1011.3
20260509112535 8 60 1.6 6.4 0.00 0.23 0.20 89 1011.3
20260509112034 8 76 1.6 6.4 0.00 0.23 0.20 89 1011.3
20260509111546 8 0 0.0 3.2 0.00 0.23 0.20 89 1011.5
20260509111034 7 111 0.0 3.2 0.00 0.23 0.20 89 1011.5
20260509110533 7 0 0.0 3.2 0.00 0.23 0.20 89 1011.6
20260509110048 7 0 0.0 3.2 0.00 0.23 0.20 89 1011.5
20260509105534 7 111 1.6 3.2 0.00 0.23 0.20 89 1011.5
20260509105034 7 0 0.0 3.2 0.00 0.23 0.20 89 1011.6
20260509104552 7 0 0.0 6.4 0.00 0.23 0.20 89 1011.4
20260509104035 7 98 1.6 6.4 0.00 0.23 0.20 89 1011.3
20260509103536 7 94 0.0 3.2 0.00 0.23 0.20 89 1011.5
20260509103041 7 0 0.0 3.2 0.00 0.23 0.20 89 1011.6
20260509102534 7 44 0.0 1.6 0.00 0.23 0.20 88 1011.4
20260509102034 7 0 0.0 1.6 0.00 0.23 0.20 88 1011.3
20260509101545 7 0 0.0 3.2 0.00 0.23 0.20 88 1011.4
20260509101034 7 0 0.0 3.2 0.00 0.23 0.20 88 1011.3
20260509100533 7 62 0.0 3.2 0.00 0.23 0.20 88 1011.3
20260509100040 8 62 0.0 3.2 0.00 0.23 0.20 88 1011.4
20260509095534 8 0 0.0 3.2 0.00 0.23 0.20 88 1011.3